Starlink 31280

operational
NORAD ID: 58843 Int'l Des: 2024-017 Owner: SPXS Country: US Constellation: starlink
LEOCIRCULAR

About Starlink 31280

Description loading...

Live Position

Loading 3D Globe...

Upcoming Passes

Altitude History

Altitude vs Time

uPlot chart will show altitude changes over time

Two-Line Element Set

1 58843U 24017T 25258.38311732 .00001067 00000-0 48152-4 0 9990
2 58843 53.1597 298.7672 0001275 81.7880 278.3266 15.30196595 93211
Epoch: Sep 15, 2025 • Age: 17 hours

Current Status

Altitude 489.9 km
Velocity 7.62 km/s
Sub-Earth Point -41.97°S, 134.77°W
Launch Date Jan 24, 2024
Age 1.6 years
Type internet

Technical Details

Classification Payload
Mass 730.00 kg
Dry Mass 700.00 kg
Total Mass 730.00 kg
Length 0.30 m
Diameter 4.10 m
Span 29.00 m
Shape Box + pan
Manufacturer SPXS
Bus Type Starlink V2M
Phase Status In Orbit
Owner/State SPXS/US

Large Constellations

Loading constellations...